EHI
0 0 0 0 0 0 0 0 0 0 0 0 0 0 0 1 2 3 2 2 1 1 1 0 0 1 2 2 1 3 5 5 4 3 3 3 4 4 5 5 5 5 5 4
0 0 0 0 0 0 0 0 0 0 0 0 0 0 0 1 2 2 1 1 0 1 1 1 1 2 2 2 3 3 4 4 3 3 3 3 3 4 4 5 6 6 6 5
0 0 0 0 0 0 0 0 0 0 0 0 0 0 0 0 1 1 0 0 0 0 0 1 3 5 5 6 6 5 4 3 2 2 3 4 4 4 4 4 5 6 6 5
0 0 0 0 0 0 0 0 0 0 0 0 0 0 0 0 0 0 0 0 0 0 0 2 5 8 9 9 8 6 4 2 1 2 4 5 5 4 3 3 3 3 4 4
0 0 0 0 0 0 0 0 0 0 0 0 0 0 0 0 0 0 0 0 0 0 1 3 7 9 10 10 8 6 4 2 1 3 4 4 4 3 2 1 1 1 1 2
0 0 0 0 0 0 0 0 0 0 0 0 0 0 0 0 1 1 1 0 0 1 2 4 7 9 10 10 9 6 4 2 2 4 5 4 3 3 1 1 1 1 1 1
0 0 0 0 0 0 0 0 0 0 0 0 0 0 0 0 1 2 1 0 0 1 2 3 5 6 8 9 9 7 4 2 2 4 6 5 4 3 3 2 2 2 2 1
0 0 0 0 0 0 0 0 0 0 0 0 0 0 0 0 1 2 1 0 0 1 2 3 4 5 6 7 7 6 4 3 3 5 7 6 5 4 3 3 3 3 3 3
0 0 0 0 0 0 0 0 0 0 0 0 0 0 0 0 1 1 0 0 0 0 1 3 5 6 6 7 6 5 3 3 5 7 7 7 6 5 4 4 3 3 4 4
0 0 0 0 0 0 0 0 0 0 0 0 0 0 0 0 0 0 0 0 0 0 1 2 3 4 6 7 7 6 4 4 6 6 6 5 6 6 6 5 4 3 3 4
0 0 0 0 0 0 0 0 0 0 0 0 0 0 0 0 0 0 0 0 0 0 1 1 1 2 4 7 8 8 7 7 7 5 4 4 5 6 6 5 4 3 3 3
0 0 0 0 0 0 0 0 0 0 0 0 0 0 0 0 0 0 0 0 0 0 0 0 1 2 3 5 6 7 8 8 7 5 4 4 4 5 4 4 3 3 3 3
0 0 0 0 0 0 0 0 0 0 0 0 0 0 0 0 0 0 0 1 1 0 0 0 1 2 3 3 4 5 6 7 7 6 6 5 4 4 4 4 4 3 3 3
0 0 0 0 0 0 0 0 0 0 0 0 0 0 0 0 0 0 1 2 2 1 0 0 0 1 3 4 4 4 6 7 8 8 6 5 4 3 3 5 5 4 3 3
0 0 0 0 0 0 0 0 0 0 0 0 0 0 0 0 0 1 2 3 3 2 1 0 0 1 4 6 5 5 6 7 8 7 5 3 3 3 3 5 6 5 4 4
0 0 0 0 0 0 0 0 0 0 0 0 0 0 0 0 0 1 3 4 4 3 1 1 1 1 3 5 6 6 6 6 6 6 5 3 2 3 3 4 6 7 6 5
0 0 0 0 0 0 0 0 0 1 1 1 0 0 1 1 1 2 4 5 5 3 1 1 1 1 1 3 6 7 6 5 5 6 6 5 4 3 3 4 7 9 8 6
0 0 0 0 0 0 0 0 1 1 2 2 1 1 3 4 3 4 4 5 4 2 0 1 2 2 1 2 4 6 6 5 4 5 6 6 5 4 5 6 8 8 8 7
0 0 0 0 0 0 0 0 0 1 1 2 3 4 5 5 3 3 3 2 2 2 2 3 3 3 3 3 5 6 5 4 4 4 5 6 6 6 7 8 8 7 6 6
0 0 0 0 0 0 0 1 1 1 0 1 4 7 6 3 1 1 1 1 2 3 4 4 3 3 4 5 6 6 6 4 4 4 5 6 6 6 6 7 6 5 5 5
0 0 0 0 0 0 1 2 2 1 0 1 3 6 5 2 0 1 2 2 3 5 5 4 3 3 4 4 5 7 7 5 4 4 5 6 6 6 5 4 4 3 4 6
0 0 0 0 0 0 1 3 2 1 0 0 2 3 3 2 0 1 2 4 5 5 5 4 4 4 4 4 5 7 7 5 4 5 6 6 6 6 5 4 4 4 5 6
0 0 0 0 0 0 0 1 1 0 0 0 1 1 1 1 0 1 3 5 6 6 6 6 5 5 5 6 6 7 7 7 6 6 6 6 6 6 6 5 5 5 6 6
0 0 0 0 0 0 0 0 0 1 1 1 2 2 1 0 1 2 4 6 6 6 6 6 6 6 6 6 6 7 8 9 9 8 7 7 6 5 6 6 6 6 5 5
0 0 0 0 0 0 0 0 1 2 2 2 3 3 1 0 1 3 4 5 6 6 5 5 6 7 7 7 7 8 9 10 10 9 9 8 6 6 6 6 5 4 4 4
0 0 0 0 0 0 0 1 2 3 3 4 4 4 2 1 2 3 4 5 6 6 5 5 7 9 8 7 8 9 9 10 10 10 9 8 7 6 6 6 5 4 3 3
Wind_Speed
2 3 3 6 7 5 3 3 3 4 2 2 2 3 3 3 4 4 5 6 6 7 5 4 4 4 4 3 3 3 2 2 2 1 1 1 1 1 1 1 1 2 2 3
3 4 7 5 4 3 3 3 3 3 1 2 1 3 3 4 6 6 7 7 8 6 4 4 4 4 5 4 4 3 3 3 3 2 2 1 1 1 1 1 0 1 2 2
6 6 2 3 2 3 4 5 5 3 2 3 2 4 3 3 3 3 4 5 5 7 7 6 6 5 5 5 6 5 4 4 3 2 1 1 1 1 1 1 1 1 1 2
5 5 3 3 3 4 4 6 5 4 2 1 1 2 6 3 4 4 5 5 6 7 7 6 6 6 6 6 5 4 3 3 3 3 3 3 2 2 2 1 1 1 0 1
5 3 3 3 5 5 5 1 3 3 3 1 1 1 7 1 4 7 6 6 6 6 7 8 8 8 6 5 4 4 3 3 3 3 4 3 2 2 1 0 0 1 1 1
5 3 4 4 2 4 3 5 6 5 4 0 3 3 6 4 6 6 5 5 5 5 6 6 6 5 5 5 4 4 3 3 3 3 3 4 4 2 1 1 1 0 0 1
4 4 3 3 1 2 5 6 4 4 3 5 2 2 8 6 5 6 6 5 4 4 4 4 5 6 6 6 6 5 5 4 3 3 3 4 4 3 3 3 2 1 0 0
2 6 4 3 5 5 4 8 7 5 5 4 1 4 7 5 4 3 3 2 2 3 4 5 6 7 6 6 6 6 6 4 4 3 3 3 3 3 2 2 2 2 1 1
6 7 4 3 3 8 5 3 5 7 2 1 4 5 7 2 2 1 1 1 3 3 4 4 4 4 5 6 6 7 7 5 4 4 4 3 3 3 2 2 2 1 1 1
7 4 4 2 3 3 5 8 6 6 4 2 4 4 5 4 4 3 3 3 4 3 2 2 3 3 3 4 4 4 4 4 4 4 4 3 2 2 2 2 2 1 1 0
4 4 4 2 3 4 4 4 5 5 5 6 3 8 7 8 7 6 6 5 4 4 4 3 3 3 3 3 4 4 4 4 3 3 3 2 2 2 2 1 1 1 1 1
3 5 2 5 4 3 4 6 8 5 4 4 4 9 5 6 6 5 5 4 3 3 3 3 3 3 4 4 4 4 4 4 3 3 3 2 2 1 1 1 2 2 2 2
5 6 2 6 5 1 2 3 4 6 5 5 5 8 3 1 3 4 4 3 2 2 2 2 2 3 4 4 4 4 3 3 3 3 3 2 2 2 2 2 2 2 2 2
6 5 7 8 8 4 3 3 5 6 5 5 8 8 6 4 4 4 4 3 2 2 3 3 3 3 3 4 4 4 4 3 3 3 3 2 2 2 3 2 2 2 2 2
5 3 4 5 5 3 4 5 6 6 8 9 8 8 9 8 7 5 4 3 2 2 3 4 4 3 3 3 3 4 4 3 4 4 3 3 2 1 2 2 2 2 2 3
3 3 2 2 2 2 3 4 5 5 5 5 3 7 6 3 2 3 4 4 4 4 5 4 4 4 4 4 4 4 3 3 4 4 3 2 1 1 1 2 2 2 2 2
1 4 3 3 2 1 4 5 5 4 4 6 7 8 2 2 4 5 5 5 5 5 4 4 4 4 4 4 5 5 4 3 3 3 2 2 1 1 1 1 1 2 2 2
5 4 3 2 1 5 8 2 3 4 3 3 4 3 3 4 3 2 3 4 4 3 3 3 3 3 3 3 3 3 3 3 3 2 2 1 1 2 1 0 1 2 2 2
5 6 4 3 3 5 5 2 3 3 3 3 3 2 1 1 3 3 1 2 4 3 3 3 2 3 3 3 4 4 3 3 2 2 2 2 2 2 1 1 2 2 2 2
4 4 5 4 4 6 6 4 1 3 4 3 3 4 3 4 2 4 2 1 1 1 1 2 3 4 4 3 4 5 3 2 2 2 2 2 2 2 2 2 2 1 2 2
3 3 3 3 3 6 4 4 2 4 6 3 3 4 4 4 4 3 1 1 2 2 2 3 3 3 2 3 4 4 3 2 3 2 1 1 1 2 1 1 1 1 1 1
3 3 3 3 2 6 3 2 3 5 3 1 2 3 3 3 1 1 1 1 2 2 3 3 3 2 1 3 4 3 2 3 2 1 1 1 1 1 1 1 1 1 0 0
3 4 5 6 6 4 2 2 3 1 1 1 1 2 3 3 2 2 1 1 1 1 1 2 3 2 1 2 4 4 3 2 2 2 1 1 1 1 1 1 1 1 0 1
2 1 2 2 4 3 3 2 2 1 1 1 1 2 3 2 1 1 2 1 1 1 1 1 2 2 1 2 3 3 3 2 3 2 1 1 1 0 0 0 1 1 1 1
3 1 1 2 4 3 3 3 3 3 3 3 2 1 2 4 2 2 1 2 2 2 1 1 2 3 3 2 2 2 2 3 3 2 2 1 1 1 1 1 2 2 3 3
4 4 4 5 5 3 4 4 2 1 2 1 2 2 1 2 3 2 2 2 1 2 1 1 2 2 2 2 2 2 3 3 3 2 2 2 2 1 1 1 2 2 3 3
Wind_Direction
108 95 206 216 199 198 189 203 252 261 250 133 216 251 253 205 199 204 208 209 216 222 220 202 200 197 187 184 186 192 185 177 148 145 172 184 225 236 238 234 227 215 200 186
45 253 230 216 205 195 183 208 254 293 31 132 241 292 261 205 214 215 214 216 218 220 213 205 197 196 193 192 196 192 191 180 177 187 190 186 186 211 222 279 264 225 206 190
197 238 207 184 196 193 210 195 212 216 8 48 86 325 293 267 244 243 239 230 221 219 216 210 206 204 201 203 204 202 194 185 183 179 148 104 65 33 27 339 309 275 223 201
231 246 198 207 224 171 243 220 189 167 120 280 132 272 281 263 275 252 248 241 232 230 218 210 208 208 210 211 206 204 191 188 180 161 160 161 169 201 227 231 260 320 294 224
241 221 195 223 225 174 218 177 150 137 134 53 0 184 284 309 266 261 254 245 242 232 215 208 207 207 208 202 198 195 177 182 178 166 174 179 194 214 223 119 339 328 330 307
241 239 209 216 223 160 141 70 59 50 78 295 243 176 275 241 229 253 253 245 239 226 212 209 204 195 198 191 187 180 174 190 185 174 174 183 190 187 158 208 232 262 322 338
305 292 245 184 116 54 97 91 41 2 8 253 254 193 252 254 234 228 239 242 234 215 205 203 196 195 197 189 187 179 177 191 190 175 176 188 190 183 196 211 214 208 231 278
223 282 245 195 177 176 166 141 156 192 221 268 296 234 257 267 256 231 230 227 220 206 201 201 203 201 202 195 188 180 181 190 183 179 194 198 196 193 208 211 202 200 214 238
187 250 277 221 182 147 144 166 162 135 147 289 284 286 298 306 329 312 252 222 227 221 218 210 199 194 197 193 190 186 182 187 187 188 191 196 201 201 209 206 199 204 205 227
166 228 285 285 90 52 138 143 105 118 146 242 289 275 254 256 251 258 250 236 238 231 229 218 193 191 184 176 174 171 177 183 184 182 191 192 201 202 199 178 178 189 201 246
143 169 293 6 169 181 116 108 113 122 151 161 235 265 230 220 216 217 231 231 226 219 212 206 194 182 158 142 146 162 172 176 181 182 184 194 211 205 181 181 200 202 198 208
146 130 243 265 258 197 164 164 149 153 201 174 184 261 265 218 212 210 229 241 236 218 205 192 182 159 145 150 155 165 175 180 182 166 164 187 196 175 173 205 223 207 208 215
143 120 69 337 337 6 125 159 155 132 126 157 182 258 295 228 225 225 225 235 229 200 186 169 169 168 172 173 170 172 173 173 165 152 149 165 190 189 212 224 227 215 209 216
125 129 168 200 220 208 212 194 164 137 157 195 218 241 275 254 238 239 227 220 213 191 184 180 187 193 193 183 174 172 177 169 159 152 154 168 204 216 223 220 219 218 209 215
112 159 206 227 233 204 211 216 191 191 188 188 221 223 242 232 224 227 214 193 182 191 193 195 193 196 199 186 177 173 172 164 157 153 170 203 216 223 225 218 216 214 213 223
86 150 169 278 261 235 239 236 201 204 190 200 213 246 250 238 206 211 208 193 202 208 207 206 197 192 191 187 184 175 174 173 161 166 184 193 205 220 235 241 228 219 225 229
109 134 132 241 282 22 262 232 200 199 191 177 205 233 222 208 208 204 201 196 205 214 215 213 202 196 193 188 176 175 183 170 163 170 173 170 188 220 247 258 255 240 238 228
149 129 140 172 88 226 243 248 191 188 210 206 222 229 197 210 207 211 197 192 206 209 205 207 197 185 183 169 155 155 150 153 159 160 165 173 197 226 241 238 253 254 241 229
159 139 131 138 184 259 290 265 178 180 246 232 211 202 171 113 47 346 295 192 198 202 195 193 176 157 141 140 143 134 134 142 144 162 189 204 200 206 203 238 261 263 248 244
68 102 123 142 166 221 248 290 225 120 267 264 197 186 167 112 120 263 272 162 146 132 125 134 123 113 119 133 133 129 136 136 174 208 217 213 196 191 200 229 251 269 253 253
50 61 123 161 204 252 278 308 84 156 245 255 197 190 164 177 205 218 157 122 129 125 112 105 110 120 147 148 132 135 145 183 217 219 210 195 204 198 195 211 243 272 271 279
167 154 176 144 182 250 314 66 164 232 277 216 192 197 180 184 177 115 118 129 112 96 95 101 111 122 137 134 133 143 184 214 201 174 174 197 221 230 202 195 272 289 240 246
189 189 185 186 211 245 273 236 255 228 259 260 204 203 156 154 172 152 138 137 123 131 131 122 127 123 112 158 158 173 215 202 166 149 168 205 218 235 217 193 228 297 248 230
273 129 142 247 273 288 295 316 344 340 297 285 197 145 133 146 171 157 144 149 166 196 180 155 133 148 206 217 191 200 210 184 163 169 182 193 184 252 346 276 220 218 239 246
231 176 149 257 284 321 327 336 338 350 19 42 37 63 151 149 158 167 177 200 206 207 203 169 181 200 220 220 210 207 195 167 170 189 205 214 220 213 223 246 234 229 229 223
216 190 183 225 235 222 263 288 320 2 8 42 54 16 20 158 173 182 216 238 232 216 198 193 204 218 236 232 240 228 190 175 177 193 211 215 217 223 226 246 286 270 252 246